Other Public Products
Issued by NWS Charleston, SC

Current Version | Previous Version | Graphics & Text | Print | Product List | Glossary On
Versions: 1 2 3 4 5 6 7 8 9 10 11 12 13 14 15 16 17 18 19 20 21 22 23 24 25 26 27 28 29 30 31 32 33 34 35 36 37 38 39 40 41 42 43 44 45 46 47 48 49 50
585
FPUS82 KCHS 211712
OPUCHS

TEST...KCHS/KSAV Gateway Observations...TEST
National Weather Service Charleston SC
1200 PM EST WED FEB 21 2018

NOTE: "fair" indicates few or no clouds below 12,000 feet with no
significant weather and/or obstructions to visibility.

SCZ050-WAZ558-NCZ071-TXZ119-213-PAZ071-DCZ001-FLZ074-172-MI076-
NYZ176-178-MAZ016-IL014-TNZ027-NJZ106-GAZ044-MD014-211800-

...Gateway Observations for Charleston International...

CITY           SKY/WX    TMP DP  RH WIND       PRES   REMARKS
Chas Airport   PTSUNNY   77  68  73 S13       30.46F
Seattle        CLOUDY    29  14  53 SE7       30.32S WCI  22
Charlotte      PTSUNNY   74  64  71 S12       30.46S
Dallas DFW     CLOUDY    37  33  85 N18       30.25S WCI  27
Dallas Love    CLOUDY    37  33  85 N10       30.26F WCI  30
Philladelphia  MOSUNNY   72  60  66 SW22G30   30.29F
Wash National  PTSUNNY   76  63  64 SW14      30.32F
Baltimore      FAIR      74  62  66 SW14G23   30.29F
Miami          PTSUNNY   82  69  64 E20G29    30.35F
Detroit        CLOUDY    38  34  85 N10       30.45R WCI  31
Newark         FAIR      74  59  59 SW14      30.24F
Laguardia      FAIR      70  58  65 SW13G21   30.24F
J F K          FAIR      61  54  77 S13       30.27F
Boston Logan   PTSUNNY   68  57  68 SW22      30.15F
Ft. Lauderdale FAIR      81  71  71 E20       30.35F
Chicago O`Hare CLOUDY    30  18  60 N9        30.56R WCI  22
Chicago Midway CLOUDY    32  22  66 N8        30.56R WCI  25
Houston Bush   LGT RAIN  60  59  96 N12       30.09R FOG
Houston Hobby  LGT RAIN  74  74 100 S10       30.07F
Nashville      LGT RAIN  59  56  89 N12       30.34R FOG
Atlanta        CLOUDY    71  67  87 S7        30.42F

$$

GAZ044-118-TXZ119-213-NCZ071-DCZ001-MDZ014-506-PAZ021-071-NJZ106-
NYZ176-178-MAZ106-OHZ011-021-055-MIZ076-KYZ091-ILZ014-INZ047-
MNZ060-ONZ431-211800-

...Gateway Observations for Savannah International...

CITY           SKY/WX    TMP DP  RH WIND       PRES   REMARKS
Savannah Arpt  PTSUNNY   79  67  66 S15       30.44F
Atlanta        CLOUDY    71  67  87 S7        30.42F
Charlotte      PTSUNNY   74  64  71 S12       30.46S
Dallas DFW     CLOUDY    37  33  85 N18       30.25S WCI  27
Houston Bush   LGT RAIN  60  59  96 N12       30.09R FOG
Wash National  PTSUNNY   76  63  64 SW14      30.32F
Wash Dulles    PTSUNNY   74  63  68 S20G26    30.32F
Baltimore      FAIR      74  62  66 SW14G23   30.29F
Philadelphia   MOSUNNY   72  60  66 SW22G30   30.29F
Newark         FAIR      74  59  59 SW14      30.24F
Laguardia      FAIR      70  58  65 SW13G21   30.24F
J F K          FAIR      61  54  77 S13       30.27F
Boston         PTSUNNY   68  57  68 SW22      30.15F
Pittsburg      CLOUDY    63  53  70 NW14      30.29R
Akron          LGT RAIN  47  43  86 N12       30.36R
Cleveland      LGT RAIN  40  38  93 N14       30.44R FOG     WCI  32
Cincinnati     LGT RAIN  49  49 100 NW12      30.40R
Columbus       CLOUDY    54  54  99 N20       30.36R
Detroit        CLOUDY    38  34  85 N10       30.45R WCI  31
Chicago O`Hare CLOUDY    30  18  60 N9        30.56R WCI  22
Minneapolis    FAIR      12   3  67 SW6       30.63R WCI   3
Indianapolis   LGT RAIN  38  36  92 N8        30.46R WCI  32
Toronto Canada NOT AVBL

$$




USA.gov is the U.S. government's official web portal to all federal, state and local government web resources and services.